Location: Krakow
(50.0212°N, 19.9423°E)
Time: 02:38:28
(UTC+02:00)

CAS-4A - Visible Passes

Search period start: 19 April 2024 00:00
Search period end: 29 April 2024 00:00
Orbit: 479 x 497 km, 43.0° (Epoch: 18 April)

Date Brightness Start Highest point End Pass type
(mag) Time Alt. Az. Time Alt. Az. Time Alt. Az.
19 Apr ? 03:36:28 14° SSE 03:36:40 14° SSE 03:38:39 10° ESE visible
20 Apr ? 03:11:25 13° SE 03:11:25 13° SE 03:12:33 10° ESE visible
20 Apr ? 04:45:45 11° SW 04:48:52 26° S 04:52:08 10° ESE visible
21 Apr ? 02:46:19 10° SE 02:46:19 10° SE 02:46:24 10° ESE visible
21 Apr ? 04:20:38 16° SW 04:22:44 26° S 04:26:00 10° ESE visible
22 Apr ? 03:55:28 23° SSW 03:56:33 26° S 03:59:48 10° ESE visible
23 Apr ? 03:30:16 26° S 03:30:20 26° S 03:33:34 10° ESE visible
24 Apr ? 03:05:04 23° SE 03:05:04 23° SE 03:07:17 10° ESE visible
24 Apr ? 04:39:23 10° WSW 04:42:31 26° S 04:45:44 10° SE visible
25 Apr ? 02:39:52 16° SE 02:39:52 16° SE 02:40:57 10° ESE visible
25 Apr ? 04:14:11 17° SW 04:16:11 26° S 04:19:24 10° SE visible
26 Apr ? 03:49:02 24° SSW 03:49:48 26° S 03:53:00 10° SE visible
27 Apr ? 03:23:57 25° S 03:23:57 25° S 03:26:34 10° SE visible
28 Apr ? 02:59:00 16° SE 02:59:00 16° SE 03:00:06 10° SE visible
28 Apr ? 04:33:21 10° SW 04:35:09 13° SSW 04:36:58 10° S visible
